Flag for Japan Weather past 2 weeks in Kagoshima, Japan

Now
81 °F

Warm.


Feels Like: 88 °F
Forecast: 78 / 82 °F
Wind: 20 mph from Southeast

Location: Kagoshima

Current Time: Aug 1, 2014 at 7:41:54 PM

Latest Report: Aug 1, 2014 at 7:00 PM


Visibility: N/A

Pressure: 29.59 "Hg

Humidity: 93%

Dew point: 78 °F

Location of KagoshimaLocation

Historic Weather in Kagoshima — Graph

°F

Kagoshima temperature yesterday

Maximum temperature yesterday: 84 °F (at 9:00 PM)
Minimum temperature yesterday: 77 °F (at 12:00 AM)
Average temperature yesterday: 80 °F

Past Weeks' High & Low Weather Summary

 TemperatureHumidityPressure
High95 °F (Jul 26, 3:00 PM)95% (Aug 1, 2:00 PM)29.97 "Hg (Aug 1, 2:00 PM)
Low76 °F (Jul 20, 6:00 AM)39% (Jul 28, 5:00 PM)29.57 "Hg (Aug 1, 1:00 PM)
Average84 °F75%29.84 "Hg
* Reported Jul 17 6:00 PM — Aug 1 6:00 PM, Kagoshima, Weather by CustomWeather, © 2014

Note: Actual official high and low records may vary slightly from our data, if they occured in-between our weather recording intervals... More about our weather records

Advertising

Kagoshima weather history for previous 24 hours

 ConditionsComfort  
Time TempWeatherWind HumidityBarometerVisibility
6:00 PM
Aug 1
82 °FSprinkles. Overcast.22 mph86%29.59 "Hg6 mi
5:00 PM83 °FWarm.17 mph81%29.58 "HgN/A
4:00 PM79 °FWarm.12 mph90%29.58 "HgN/A
3:00 PM76 °FRain. Overcast.22 mph94%29.60 "Hg1 mi
2:00 PM77 °FMild.28 mph95%29.61 "HgN/A
1:00 PM86 °FWarm.17 mph75%29.57 "HgN/A
12:00 PM90 °FSprinkles. Overcast.18 mph62%29.58 "Hg12 mi
11:00 AM87 °FWarm.22 mph68%29.61 "HgN/A
10:00 AM86 °FWarm.24 mph69%29.63 "HgN/A
9:00 AM86 °FSprinkles. Overcast.18 mph67%29.62 "Hg16 mi
8:00 AM86 °FWarm.16 mph70%29.61 "HgN/A
7:00 AM83 °FWarm.12 mph77%29.63 "HgN/A
6:00 AM81 °FSprinkles. Overcast.20 mph89%29.63 "Hg6 mi
5:00 AM84 °FWarm.18 mph78%29.62 "HgN/A
4:00 AM82 °FWarm.16 mph85%29.63 "HgN/A
3:00 AM84 °FOvercast.15 mph78%29.63 "Hg16 mi
2:00 AM82 °FWarm.18 mph86%29.65 "HgN/A
1:00 AM82 °FWarm.14 mph86%29.67 "HgN/A
12:00 AM83 °FWarm.15 mph79%29.69 "HgN/A
11:00 PM
Jul 31
81 °FWarm.15 mph87%29.71 "HgN/A
10:00 PM84 °FWarm.16 mph76%29.72 "HgN/A
9:00 PM84 °FSprinkles. Overcast.20 mph76%29.73 "Hg16 mi
8:00 PM83 °FWarm.13 mph79%29.73 "HgN/A
7:00 PM82 °FWarm.16 mph81%29.72 "HgN/A
Weather by CustomWeather, © 2014

See weather overviewHow to use our weather pages